sat.trackr.live / text

‹ back to catalog

STARLINK-1167

NORAD 45071 · 2020-006AD

PAYLOAD ACTIVE UNKNOWN

§ Identity

Operator
Country
US
Launch date
2020-01-29
Launch site
AFETR
Launch vehicle
Mass (kg)
RCS (m²)

Purposes: comms

External: N2YO · Heavens-Above · Gunter

§ Orbital elements

Epoch: 2026-09-09T00:04:39.071136Z

Period
93.18 min
Inclination
53.1522°
Eccentricity
0.0003523
Mean motion
15.45387514 rev/d
Perigee alt
427.8 km
Apogee alt
432.6 km
Semi-major
6,808.4 km
B*
4.6923e-4
RAAN
116.7774°
Arg perigee
150.6793°
Mean anomaly
209.4413°
Rev number
36,507

§ Raw data

STARLINK-11671 45071U 20006AD  26252.00322999  .00022417  00000+0  46923-3 0  99982 45071  53.1522 116.7774 0003523 150.6793 209.4413 15.45387514365071

JSON: /api/v1/satellites/45071 · /tle

For live sub-satellite position, see the globe view (requires WebGL).

§ Visibility from observer

Set your observer location to see the next 7 days of passes ≥ 10°. The values pass through the URL so the page stays shareable.

No JS? Fill the form by hand. The geolocation button needs JavaScript.